Date String (YYYY-MM-DD hh:mm:ss) UTC,Instrument flags,Ambient pressure (hPa),Sample flow (lpm),Bypass flow (lpm),Sample temperature (°C),Ambient temperature (°C),ASC tube jacket temperature (°C),LED temperature (°C),Box temperature (°C),Sample RH (%),Span deviation,Mass concentration (μg/m³),Mass concentration (μg/m³),Mass concentration (μg/m³)
DateTimeUTC,F1_M11,P_M11,Q1_M11,Q2_M11,T1_M11,T2_M11,T3_M11,T4_M11,T5_M11,U1_M11,ZSPAN_M11,X0_M11,X2_M11,X1_M11
2021-08-24 14:00:00,,0828.3,4.99,0.00,30.1,29.1,00.0,39.1,31.9,17.6,0000.0,0007.40,0003.36,0003.08
2021-08-24 14:01:00,,0828.3,5.00,0.00,30.1,27.4,00.0,39.1,31.4,17.7,0000.0,0007.63,0003.37,0003.08
2021-08-24 14:02:00,,0828.3,5.01,0.00,29.9,26.5,00.0,39.1,31.2,17.7,0000.0,0007.65,0003.37,0003.08
2021-08-24 14:03:00,,0828.3,5.00,0.00,29.8,26.9,00.0,39.1,31.3,18.2,0000.0,0007.33,0003.41,0003.11
2021-08-24 14:04:00,,0828.3,5.01,0.00,29.8,27.3,00.0,39.0,31.3,17.1,0000.0,0007.03,0003.41,0003.10
2021-08-24 14:05:00,,0828.3,4.99,0.00,29.8,27.6,00.0,39.0,31.3,17.0,0000.0,0007.59,0003.39,0003.09
2021-08-24 14:06:00,,0828.3,5.01,0.00,29.8,27.9,00.0,39.0,31.4,17.4,0000.0,0007.78,0003.40,0003.10
2021-08-24 14:07:00,,0828.3,5.00,0.00,29.8,28.2,00.0,39.0,31.4,18.5,0000.0,0007.40,0003.40,0003.09
2021-08-24 14:08:00,,0828.3,4.98,0.00,29.8,28.4,00.0,39.0,31.5,17.1,0000.0,0007.42,0003.44,0003.10
2021-08-24 14:09:00,,0828.3,5.01,0.00,29.8,28.5,00.0,39.0,31.5,17.1,0000.0,0007.55,0003.51,0003.14
2021-08-24 14:10:00,,0828.3,4.99,0.00,29.9,28.7,00.0,39.0,31.6,16.9,0000.0,0007.67,0003.56,0003.17
2021-08-24 14:11:00,,0828.3,5.01,0.00,29.9,28.8,00.0,39.0,31.6,17.7,0000.0,0007.42,0003.55,0003.19
2021-08-24 14:12:00,,0828.3,4.99,0.00,29.9,28.9,00.0,39.0,31.7,17.7,0000.0,0007.42,0003.57,0003.21
2021-08-24 14:13:00,,0828.4,5.00,0.00,30.0,29.0,00.0,39.0,31.7,17.3,0000.0,0008.43,0003.60,0003.22
2021-08-24 14:14:00,,0828.4,5.00,0.00,30.0,29.0,00.0,39.0,31.7,17.4,0000.0,0008.48,0003.62,0003.24
2021-08-24 14:15:00,,0828.4,4.99,0.00,30.0,29.1,00.0,39.0,31.8,18.1,0000.0,0008.56,0003.65,0003.26
2021-08-24 14:16:00,,0828.4,5.00,0.00,30.0,29.2,00.0,39.0,31.9,19.1,0000.0,0008.18,0003.69,0003.29
2021-08-24 14:17:00,,0828.4,5.00,0.00,30.1,29.2,00.0,39.1,31.9,19.6,0000.0,0007.86,0003.70,0003.30
2021-08-24 14:18:00,,0828.4,5.00,0.00,30.1,29.3,00.0,39.1,31.9,18.7,0000.0,0007.77,0003.71,0003.31
2021-08-24 14:19:00,,0828.5,4.99,0.00,30.1,28.6,00.0,39.1,31.8,18.7,0000.0,0007.73,0003.70,0003.31
2021-08-24 14:20:00,,0828.3,5.01,0.00,30.0,26.8,00.0,39.1,31.3,18.7,0000.0,0007.82,0003.69,0003.31
2021-08-24 14:21:00,,0828.3,4.99,0.00,29.8,26.6,00.0,39.0,31.2,17.8,0000.0,0007.86,0003.67,0003.30
2021-08-24 14:22:00,,0828.3,5.00,0.00,29.8,27.0,00.0,39.0,31.3,17.9,0000.0,0007.84,0003.67,0003.29
2021-08-24 14:23:00,,0828.4,5.01,0.00,29.8,27.4,00.0,39.0,31.3,17.6,0000.0,0007.70,0003.68,0003.29
2021-08-24 14:24:00,,0828.4,5.01,0.00,29.8,27.8,00.0,38.9,31.4,18.5,0000.0,0006.46,0003.68,0003.28
2021-08-24 14:25:00,,0828.4,4.99,0.00,29.8,28.1,00.0,38.9,31.5,18.9,0000.0,0006.25,0003.68,0003.28
2021-08-24 14:26:00,,0828.4,5.01,0.00,29.8,28.3,00.0,38.9,31.5,22.0,0000.0,0006.72,0003.66,0003.27
2021-08-24 14:27:00,,0828.3,4.98,0.00,29.8,28.5,00.0,38.9,31.5,22.5,0000.0,0007.48,0003.63,0003.25
2021-08-24 14:28:00,,0828.3,5.00,0.00,29.9,28.6,00.0,38.9,31.6,23.7,0000.0,0007.46,0003.61,0003.24
2021-08-24 14:29:00,,0828.3,5.01,0.00,29.9,28.8,00.0,38.9,31.7,23.6,0001.6,0007.33,0003.59,0003.23
2021-08-24 14:30:00,,0828.4,4.99,0.00,29.9,28.9,00.0,39.0,31.7,25.0,0002.1,0007.51,0003.57,0003.21
2021-08-24 14:31:00,,0828.4,5.01,0.00,30.0,29.0,00.0,39.0,31.7,26.9,0000.4,0007.69,0003.52,0003.20
2021-08-24 14:32:00,,0828.4,4.98,0.00,30.0,29.0,00.0,39.0,31.8,25.6,0000.5,0007.62,0003.51,0003.18
2021-08-24 14:33:00,,0828.4,4.99,0.00,30.0,29.1,00.0,39.0,31.8,24.9,0000.6,0007.72,0003.52,0003.17
2021-08-24 14:34:00,,0828.4,5.01,0.00,30.0,28.3,00.0,39.0,31.6,23.7,0001.0,0007.73,0003.51,0003.16
2021-08-24 14:35:00,,0828.3,5.01,0.00,29.9,26.5,00.0,39.0,31.1,23.5,0001.1,0007.68,0003.48,0003.15
2021-08-24 14:36:00,,0828.3,4.99,0.00,29.8,26.4,00.0,39.0,31.1,22.5,0002.0,0007.59,0003.45,0003.13
2021-08-24 14:37:00,,0828.3,5.01,0.00,29.7,26.9,00.0,38.9,31.2,23.6,0002.5,0007.25,0003.44,0003.12
2021-08-24 14:38:00,,0828.3,4.99,0.00,29.7,27.3,00.0,38.9,31.2,18.8,0000.0,0006.92,0003.45,0003.13
2021-08-24 14:39:00,,0828.4,5.01,0.00,29.7,27.6,00.0,38.9,31.3,20.3,0000.0,0006.88,0003.48,0003.13
2021-08-24 14:40:00,,0828.4,5.00,0.00,29.7,27.9,00.0,38.8,31.4,20.0,0000.0,0006.95,0003.50,0003.13
2021-08-24 14:41:00,,0828.4,5.00,0.00,29.7,28.2,00.0,38.8,31.4,19.4,0000.0,0006.88,0003.54,0003.14
2021-08-24 14:42:00,,0828.4,5.00,0.00,29.7,28.4,00.0,38.8,31.5,19.2,0000.0,0006.26,0003.56,0003.15
2021-08-24 14:43:00,,0828.4,4.99,0.00,29.8,28.5,00.0,38.8,31.5,24.6,0000.0,0006.17,0003.57,0003.16
2021-08-24 14:44:00,,0828.5,5.00,0.00,29.8,28.7,00.0,38.9,31.6,25.8,0000.0,0006.91,0003.58,0003.16
2021-08-24 14:45:00,,0828.5,5.00,0.00,29.8,28.8,00.0,38.9,31.7,24.3,0000.0,0007.81,0003.60,0003.16
2021-08-24 14:46:00,,0828.5,5.00,0.00,29.9,28.9,00.0,38.9,31.7,23.2,0000.0,0008.27,0003.60,0003.15
2021-08-24 14:47:00,,0828.5,4.99,0.00,29.9,29.0,00.0,38.9,31.7,23.1,0000.0,0008.36,0003.59,0003.16
2021-08-24 14:48:00,,0828.5,5.01,0.00,29.9,29.0,00.0,38.9,31.8,22.4,0000.0,0008.34,0003.58,0003.16
2021-08-24 14:49:00,,0828.6,5.00,0.00,29.9,28.2,00.0,38.9,31.6,21.3,0000.0,0008.12,0003.60,0003.15
2021-08-24 14:50:00,,0828.9,5.00,0.00,29.8,26.6,00.0,38.9,31.1,21.9,0000.0,0008.19,0003.61,0003.15
2021-08-24 14:51:00,,0828.8,4.99,0.00,29.7,26.5,00.0,38.9,31.0,22.4,0000.0,0008.71,0003.63,0003.14
2021-08-24 14:52:00,,0829.0,5.00,0.00,29.6,27.0,00.0,38.9,31.1,21.7,0000.0,0008.82,0003.64,0003.14
2021-08-24 14:53:00,,0829.1,5.00,0.00,29.6,27.4,00.0,38.8,31.2,21.9,0000.0,0008.86,0003.66,0003.14
2021-08-24 14:54:00,,0829.1,5.01,0.00,29.6,27.7,00.0,38.8,31.3,22.5,0000.0,0008.86,0003.66,0003.14
2021-08-24 14:55:00,,0829.0,4.99,0.00,29.6,28.0,00.0,38.8,31.4,22.7,0000.0,0008.28,0003.63,0003.14
2021-08-24 14:56:00,,0829.1,4.99,0.00,29.7,28.2,00.0,38.8,31.4,22.7,0000.0,0007.72,0003.62,0003.14
2021-08-24 14:57:00,,0829.0,5.00,0.00,29.7,28.4,00.0,38.8,31.5,22.1,0000.0,0007.86,0003.62,0003.15
2021-08-24 14:58:00,,0828.5,5.00,0.00,29.8,28.6,00.0,38.8,31.6,20.9,0000.0,0007.79,0003.61,0003.15
2021-08-24 14:59:00,,0828.5,4.99,0.00,29.8,28.7,00.0,38.8,31.6,20.0,0000.0,0007.79,0003.62,0003.15
